User: anonymous   Login
Location: Kailua
(21.4020°N, 157.7390°W)
Time: 17:44:40
(UTC-10:00)
Language:

Cosmos 2297 Rocket - Orbit

View from above orbital plane
View from above orbital plane
View from above satellite
View from above satellite

Ground track
Ground track

The orbit data is extracted from the following two-line orbital elements,

1 23405U 94077B   15145.79200584 -.00000127  00000-0 -41011-4 0  9995
2 23405 070.9830 359.3778 0002544 335.5905 024.5097 14.15152320 58925
Epoch (UTC): 25 May 2015 19:00:29
Eccentricity: 0.0002544
inclination: 70.9830°
perigee height: 840 km
apogee height: 843 km
right ascension of ascending node: 359.3778°
argument of perigee: 335.5905°
revolutions per day: 14.15152320
mean anomaly at epoch: 24.5097°
orbit number at epoch: 5892

The dashed part of the orbit path shows where the satellite is in the earth's shadow,  

DLR